,,,PA_Meas_PMT16A,,PR_Meas_QMR101_102,,RH_Meas_QMH101,,SR_Meas_QMS101,,TA_Meas_QMH101,,GenWind,,GenWind,
date,time,status,PA,status,PR,status,RH,status,SR,status,TA,status,DirAvg,status,SpdAvg,
2009-07-13, 00:00:04,VALID,999.788,VALID,0,VALID,92.1963,VALID,0,VALID,23.2719,VALID,103,VALID,0.964063,
2009-07-13, 00:01:04,VALID,999.733,VALID,0,VALID,92.3718,VALID,0,VALID,23.2915,VALID,104,VALID,0.875391,
2009-07-13, 00:02:04,VALID,999.7,VALID,0,VALID,92.41,VALID,0,VALID,23.311,VALID,104,VALID,1.04609,
2009-07-13, 00:03:04,VALID,999.688,VALID,0,VALID,92.4634,VALID,0,VALID,23.35,VALID,104,VALID,0.987109,
2009-07-13, 00:04:04,VALID,999.684,VALID,0,VALID,92.3871,VALID,0,VALID,23.3482,VALID,104,VALID,0.960938,
2009-07-13, 00:05:04,VALID,999.697,VALID,0,VALID,92.0971,VALID,0,VALID,23.3305,VALID,98,VALID,1.10391,
2009-07-13, 00:06:04,VALID,999.678,VALID,0,VALID,91.9751,VALID,0,VALID,23.3518,VALID,98,VALID,1.17617,
2009-07-13, 00:07:04,VALID,999.642,VALID,0,VALID,92.0056,VALID,0,VALID,23.3323,VALID,115,VALID,0.924609,
2009-07-13, 00:08:04,VALID,999.64,VALID,0,VALID,91.998,VALID,0,VALID,23.311,VALID,107,VALID,0.841016,
2009-07-13, 00:09:04,VALID,999.63,VALID,0,VALID,91.9064,VALID,0,VALID,23.3518,VALID,105,VALID,0.583203,
2009-07-13, 00:10:04,VALID,999.641,VALID,0,VALID,91.7004,VALID,0,VALID,23.3305,VALID,102,VALID,0.503125,
2009-07-13, 00:11:04,VALID,999.601,VALID,0,VALID,91.5554,VALID,0,VALID,23.3305,VALID,102,VALID,0.364453,
2009-07-13, 00:12:04,VALID,999.586,VALID,0,VALID,91.38,VALID,0,VALID,23.3713,VALID,102,VALID,0.138672,
2009-07-13, 00:13:04,VALID,999.609,VALID,0,VALID,91.174,VALID,0,VALID,23.35,VALID,102,VALID,0.0117188,
2009-07-13, 00:14:04,VALID,999.615,VALID,0,VALID,91.0977,VALID,0,VALID,23.35,VALID,102,VALID,0,
2009-07-13, 00:15:04,VALID,999.616,VALID,0,VALID,91.1206,VALID,0,VALID,23.3305,VALID,102,VALID,0,
2009-07-13, 00:16:04,VALID,999.622,VALID,0,VALID,91.2426,VALID,0,VALID,23.3518,VALID,102,VALID,0.23125,
2009-07-13, 00:17:04,VALID,999.57,VALID,0,VALID,91.2503,VALID,0,VALID,23.35,VALID,101,VALID,0.400391,
2009-07-13, 00:18:04,VALID,999.583,VALID,0,VALID,91.1587,VALID,0,VALID,23.35,VALID,35,VALID,0.600391,
2009-07-13, 00:19:04,VALID,999.527,VALID,0,VALID,91.1663,VALID,0,VALID,23.3305,VALID,35,VALID,0.561719,
2009-07-13, 00:20:04,VALID,999.56,VALID,0,VALID,91.1434,VALID,0,VALID,23.3305,VALID,326,VALID,0.571875,
2009-07-13, 00:21:04,VALID,999.584,VALID,0,VALID,91.0824,VALID,0,VALID,23.3713,VALID,326,VALID,0.442187,
2009-07-13, 00:22:04,VALID,999.593,VALID,0,VALID,90.9451,VALID,0,VALID,23.3695,VALID,326,VALID,0.342187,
2009-07-13, 00:23:04,VALID,999.605,VALID,0,VALID,90.8077,VALID,0,VALID,23.3695,VALID,326,VALID,0.448047,
2009-07-13, 00:24:04,VALID,999.588,VALID,0,VALID,90.7238,VALID,0,VALID,23.3908,VALID,326,VALID,0.542969,
2009-07-13, 00:25:04,VALID,999.59,VALID,0,VALID,90.472,VALID,0,VALID,23.3695,VALID,329,VALID,0.627344,
2009-07-13, 00:26:04,VALID,999.546,VALID,0,VALID,90.6246,VALID,0,VALID,23.3713,VALID,21,VALID,0.669922,
2009-07-13, 00:27:04,VALID,999.545,VALID,0,VALID,90.4034,VALID,0,VALID,23.3695,VALID,21,VALID,0.665234,
2009-07-13, 00:28:04,VALID,999.52,VALID,0,VALID,90.2279,VALID,0,VALID,23.4085,VALID,21,VALID,0.721484,
2009-07-13, 00:29:04,VALID,999.496,VALID,0,VALID,89.9227,VALID,0,VALID,23.4085,VALID,7,VALID,1.06602,
2009-07-13, 00:30:04,VALID,999.461,VALID,0,VALID,90.6246,VALID,0,VALID,23.4103,VALID,2,VALID,0.960156,
2009-07-13, 00:31:04,VALID,999.453,VALID,0,VALID,90.8001,VALID,0,VALID,23.389,VALID,13,VALID,0.839844,
2009-07-13, 00:32:04,VALID,999.425,VALID,0,VALID,90.7925,VALID,0,VALID,23.3695,VALID,17,VALID,0.999219,
2009-07-13, 00:33:04,VALID,999.388,VALID,0,VALID,91.029,VALID,0,VALID,23.3713,VALID,22,VALID,1.02461,
2009-07-13, 00:34:04,VALID,999.4,VALID,0,VALID,90.9298,VALID,0,VALID,23.3305,VALID,44,VALID,0.884766,
2009-07-13, 00:35:04,VALID,999.379,VALID,0,VALID,90.9527,VALID,0,VALID,23.2915,VALID,44,VALID,0.587891,
2009-07-13, 00:36:04,VALID,999.37,VALID,0,VALID,90.8611,VALID,0,VALID,23.2737,VALID,38,VALID,0.675781,
2009-07-13, 00:37:04,VALID,999.324,VALID,0,VALID,90.7849,VALID,0,VALID,23.2134,VALID,38,VALID,0.592578,
2009-07-13, 00:38:04,VALID,999.348,VALID,0,VALID,90.9909,VALID,0,VALID,23.1549,VALID,37,VALID,0.386328,
2009-07-13, 00:39:04,VALID,999.336,VALID,0,VALID,91.2045,VALID,0,VALID,23.1159,VALID,37,VALID,0.274219,
2009-07-13, 00:40:04,VALID,999.286,VALID,0,VALID,91.3647,VALID,0,VALID,23.0964,VALID,37,VALID,0.681641,
2009-07-13, 00:41:04,VALID,999.254,VALID,0,VALID,91.3952,VALID,0,VALID,23.0769,VALID,37,VALID,0.802734,
2009-07-13, 00:42:04,VALID,999.251,VALID,0,VALID,91.4181,VALID,0,VALID,23.0573,VALID,37,VALID,0.491797,
2009-07-13, 00:43:04,VALID,999.222,VALID,0,VALID,91.296,VALID,0,VALID,22.9971,VALID,37,VALID,0.182422,
2009-07-13, 00:44:04,VALID,999.212,VALID,0,VALID,91.5707,VALID,0,VALID,22.9793,VALID,37,VALID,0.484375,
2009-07-13, 00:45:04,VALID,999.199,VALID,0,VALID,91.9369,VALID,0,VALID,22.9793,VALID,37,VALID,0.530078,
2009-07-13, 00:46:04,VALID,999.222,VALID,0,VALID,91.853,VALID,0,VALID,23.0006,VALID,43,VALID,0.628906,
2009-07-13, 00:47:04,VALID,999.241,VALID,0,VALID,92.1887,VALID,0,VALID,23.0006,VALID,74,VALID,0.926172,
2009-07-13, 00:48:04,VALID,999.235,VALID,0,VALID,92.3718,VALID,0,VALID,23.0396,VALID,80,VALID,0.948047,
2009-07-13, 00:49:04,VALID,999.225,VALID,0,VALID,92.4786,VALID,0,VALID,23.0573,VALID,90,VALID,0.993359,
2009-07-13, 00:50:04,VALID,999.19,VALID,0,VALID,92.5015,VALID,0,VALID,23.0769,VALID,89,VALID,0.945703,
2009-07-13, 00:51:04,VALID,999.186,VALID,0,VALID,92.41,VALID,0,VALID,23.1176,VALID,89,VALID,0.807422,
2009-07-13, 00:52:04,VALID,999.164,VALID,0,VALID,92.471,VALID,0,VALID,23.0964,VALID,89,VALID,0.385938,
2009-07-13, 00:53:04,VALID,999.171,VALID,0,VALID,92.41,VALID,0,VALID,23.1159,VALID,89,VALID,0.193359,
2009-07-13, 00:54:04,VALID,999.162,VALID,0,VALID,92.3794,VALID,0,VALID,23.1176,VALID,89,VALID,0,
2009-07-13, 00:55:04,VALID,999.148,VALID,0,VALID,92.3947,VALID,0,VALID,23.1159,VALID,89,VALID,0.110937,
2009-07-13, 00:56:04,VALID,999.184,VALID,0,VALID,92.4252,VALID,0,VALID,23.1159,VALID,89,VALID,0.353125,
2009-07-13, 00:57:04,VALID,999.157,VALID,0,VALID,92.3794,VALID,0,VALID,23.1354,VALID,36,VALID,0.632422,
2009-07-13, 00:58:04,VALID,999.167,VALID,0,VALID,92.3566,VALID,0,VALID,23.1354,VALID,21,VALID,0.756641,
2009-07-13, 00:59:04,VALID,999.124,VALID,0,VALID,92.2879,VALID,0,VALID,23.1744,VALID,18,VALID,0.789063,
2009-07-13, 01:00:04,VALID,999.106,VALID,0,VALID,92.2192,VALID,0,VALID,23.1957,VALID,10,VALID,0.842578,
2009-07-13, 01:01:04,VALID,999.099,VALID,0,VALID,92.1124,VALID,0,VALID,23.1744,VALID,10,VALID,0.828906,
2009-07-13, 01:02:04,VALID,999.09,VALID,0,VALID,92.0514,VALID,0,VALID,23.1549,VALID,10,VALID,1.02734,
2009-07-13, 01:03:04,VALID,999.064,VALID,0,VALID,92.2268,VALID,0,VALID,23.1566,VALID,19,VALID,1.24258,
2009-07-13, 01:04:04,VALID,999.04,VALID,0,VALID,92.2955,VALID,0,VALID,23.1354,VALID,20,VALID,1.3707,
2009-07-13, 01:05:04,VALID,999.006,VALID,0,VALID,92.2879,VALID,0,VALID,23.1159,VALID,28,VALID,1.55508,
2009-07-13, 01:06:04,VALID,999.016,VALID,0,VALID,92.3184,VALID,0,VALID,23.1371,VALID,29,VALID,1.38359,
2009-07-13, 01:07:04,VALID,998.981,VALID,0,VALID,92.2497,VALID,0,VALID,23.0964,VALID,20,VALID,1.1293,
2009-07-13, 01:08:04,VALID,998.949,VALID,0,VALID,92.1811,VALID,0,VALID,23.0769,VALID,22,VALID,0.907422,
2009-07-13, 01:09:04,VALID,998.95,VALID,0,VALID,92.1048,VALID,0,VALID,23.0786,VALID,22,VALID,0.794922,
2009-07-13, 01:10:04,VALID,998.917,VALID,0,VALID,92.0056,VALID,0,VALID,23.0573,VALID,22,VALID,0.814062,
2009-07-13, 01:11:04,VALID,998.886,VALID,0,VALID,91.8988,VALID,0,VALID,23.0573,VALID,8,VALID,1.02617,
2009-07-13, 01:12:04,VALID,998.874,VALID,0,VALID,91.7691,VALID,0,VALID,23.0573,VALID,8,VALID,0.980859,
2009-07-13, 01:13:04,VALID,998.884,VALID,0,VALID,91.502,VALID,0,VALID,23.0769,VALID,8,VALID,1.17891,
2009-07-13, 01:14:04,VALID,998.876,VALID,0,VALID,91.4181,VALID,0,VALID,23.0964,VALID,2,VALID,0.896875,
2009-07-13, 01:15:04,VALID,998.917,VALID,0,VALID,91.3418,VALID,0,VALID,23.1371,VALID,352,VALID,0.433594,
2009-07-13, 01:16:04,VALID,998.86,VALID,0,VALID,91.2274,VALID,0,VALID,23.1549,VALID,352,VALID,0.475,
2009-07-13, 01:17:04,VALID,998.863,VALID,0,VALID,91.1511,VALID,0,VALID,23.1744,VALID,352,VALID,0.395703,
2009-07-13, 01:18:04,VALID,998.815,VALID,0,VALID,91.1129,VALID,0,VALID,23.1744,VALID,352,VALID,0.351953,
2009-07-13, 01:19:04,VALID,998.765,VALID,0,VALID,91.0137,VALID,0,VALID,23.1957,VALID,352,VALID,0.350781,
2009-07-13, 01:20:04,VALID,998.813,VALID,0,VALID,90.968,VALID,0,VALID,23.1939,VALID,352,VALID,0.289844,
2009-07-13, 01:21:04,VALID,998.826,VALID,0,VALID,90.8611,VALID,0,VALID,23.2134,VALID,352,VALID,0.375781,
2009-07-13, 01:22:04,VALID,998.82,VALID,0,VALID,90.8611,VALID,0,VALID,23.2542,VALID,339,VALID,0.467578,
2009-07-13, 01:23:04,VALID,998.804,VALID,0,VALID,90.7314,VALID,0,VALID,23.2524,VALID,277,VALID,0.209766,
2009-07-13, 01:24:04,VALID,998.798,VALID,0,VALID,90.5941,VALID,0,VALID,23.2737,VALID,277,VALID,0.0207031,
2009-07-13, 01:25:04,VALID,998.798,VALID,0,VALID,90.4949,VALID,0,VALID,23.2915,VALID,277,VALID,0.344922,
2009-07-13, 01:26:04,VALID,998.792,VALID,0,VALID,90.1211,VALID,0,VALID,23.2915,VALID,183,VALID,0.585938,
2009-07-13, 01:27:04,VALID,998.798,VALID,0,VALID,90.0982,VALID,0,VALID,23.3127,VALID,169,VALID,0.472656,
2009-07-13, 01:28:04,VALID,998.775,VALID,0,VALID,90.0448,VALID,0,VALID,23.2915,VALID,169,VALID,0.451953,
2009-07-13, 01:29:04,VALID,998.767,VALID,0,VALID,89.854,VALID,0,VALID,23.3305,VALID,166,VALID,0.655078,
2009-07-13, 01:30:04,VALID,998.784,VALID,0,VALID,89.6938,VALID,0,VALID,23.35,VALID,156,VALID,0.901953,
2009-07-13, 01:31:04,VALID,998.782,VALID,0,VALID,89.7854,VALID,0,VALID,23.3695,VALID,156,VALID,0.725781,
2009-07-13, 01:32:04,VALID,998.813,VALID,0,VALID,90.06,VALID,0,VALID,23.389,VALID,157,VALID,1.23438,
2009-07-13, 01:33:04,VALID,998.843,VALID,0,VALID,90.06,VALID,0,VALID,23.4085,VALID,165,VALID,1.50039,
2009-07-13, 01:34:04,VALID,998.814,VALID,0,VALID,89.9609,VALID,0,VALID,23.4085,VALID,165,VALID,1.39531,
2009-07-13, 01:35:04,VALID,998.835,VALID,0,VALID,89.8235,VALID,0,VALID,23.428,VALID,173,VALID,1.26719,
2009-07-13, 01:36:04,VALID,998.808,VALID,0,VALID,89.5412,VALID,0,VALID,23.4671,VALID,181,VALID,1.01563,
2009-07-13, 01:37:04,VALID,998.786,VALID,0,VALID,89.1826,VALID,0,VALID,23.5274,VALID,179,VALID,1.09727,
2009-07-13, 01:38:04,VALID,998.805,VALID,0,VALID,88.8622,VALID,0,VALID,23.5646,VALID,179,VALID,1.46523,
2009-07-13, 01:39:04,VALID,998.798,VALID,0,VALID,88.2518,VALID,0,VALID,23.6622,VALID,191,VALID,1.32148,
2009-07-13, 01:40:04,VALID,998.784,VALID,0,VALID,87.8703,VALID,0,VALID,23.7402,VALID,193,VALID,0.803906,
2009-07-13, 01:41:04,VALID,998.811,VALID,0,VALID,87.4202,VALID,0,VALID,23.7597,VALID,192,VALID,0.840234,
2009-07-13, 01:42:04,VALID,998.836,VALID,0,VALID,87.2218,VALID,0,VALID,23.7793,VALID,194,VALID,0.774219,
2009-07-13, 01:43:04,VALID,998.85,VALID,0,VALID,87.0692,VALID,0,VALID,23.8183,VALID,223,VALID,0.584766,
2009-07-13, 01:44:04,VALID,998.847,VALID,0,VALID,87.3286,VALID,0,VALID,23.7988,VALID,248,VALID,0.565234,
2009-07-13, 01:45:04,VALID,998.819,VALID,0,VALID,87.5575,VALID,0,VALID,23.7597,VALID,251,VALID,0.293359,
2009-07-13, 01:46:04,VALID,998.824,VALID,0,VALID,87.6796,VALID,0,VALID,23.7207,VALID,251,VALID,0.170312,
2009-07-13, 01:47:04,VALID,998.847,VALID,0,VALID,87.7101,VALID,0,VALID,23.6817,VALID,251,VALID,0,
2009-07-13, 01:48:04,VALID,998.815,VALID,0,VALID,87.8169,VALID,0,VALID,23.6622,VALID,250,VALID,0.00078125,
2009-07-13, 01:49:04,VALID,998.792,VALID,0,VALID,87.9695,VALID,0,VALID,23.6427,VALID,250,VALID,0.441016,
2009-07-13, 01:50:04,VALID,998.812,VALID,0,VALID,87.8169,VALID,0,VALID,23.6427,VALID,171,VALID,0.541797,
2009-07-13, 01:51:04,VALID,998.792,VALID,0,VALID,87.6567,VALID,0,VALID,23.6427,VALID,155,VALID,0.685156,
2009-07-13, 01:52:04,VALID,998.747,VALID,0,VALID,87.5194,VALID,0,VALID,23.6427,VALID,130,VALID,0.796484,
2009-07-13, 01:53:04,VALID,998.735,VALID,0,VALID,87.321,VALID,0,VALID,23.6427,VALID,130,VALID,1.11758,
2009-07-13, 01:54:04,VALID,998.72,VALID,0,VALID,87.0845,VALID,0,VALID,23.7012,VALID,129,VALID,1.11445,
2009-07-13, 01:55:04,VALID,998.697,VALID,0,VALID,86.8861,VALID,0,VALID,23.7207,VALID,125,VALID,1.03008,
2009-07-13, 01:56:04,VALID,998.682,VALID,0,VALID,86.2147,VALID,0,VALID,23.6817,VALID,116,VALID,1.07031,
2009-07-13, 01:57:04,VALID,998.667,VALID,0,VALID,86.3368,VALID,0,VALID,23.7012,VALID,110,VALID,1.2875,
2009-07-13, 01:58:04,VALID,998.67,VALID,0,VALID,85.3526,VALID,0,VALID,23.7207,VALID,102,VALID,1.40352,
2009-07-13, 01:59:04,VALID,998.664,VALID,0,VALID,85.6272,VALID,0,VALID,23.7597,VALID,106,VALID,1.20664,
2009-07-13, 02:00:04,VALID,998.669,VALID,0,VALID,86.1308,VALID,0,VALID,23.7402,VALID,102,VALID,1.40273,
2009-07-13, 02:01:04,VALID,998.689,VALID,0,VALID,86.6649,VALID,0,VALID,23.6622,VALID,100,VALID,1.96016,
2009-07-13, 02:02:04,VALID,998.685,VALID,0,VALID,87.3668,VALID,0,VALID,23.5841,VALID,96,VALID,1.65117,
2009-07-13, 02:03:04,VALID,998.684,VALID,0,VALID,87.6567,VALID,0,VALID,23.5061,VALID,94,VALID,1.68281,
2009-07-13, 02:04:04,VALID,998.74,VALID,0,VALID,87.9924,VALID,0,VALID,23.5061,VALID,93,VALID,1.72227,
2009-07-13, 02:05:04,VALID,998.712,VALID,0,VALID,87.7177,VALID,0,VALID,23.4866,VALID,91,VALID,1.66758,
2009-07-13, 02:06:04,VALID,998.757,VALID,0,VALID,88,VALID,0,VALID,23.5061,VALID,85,VALID,1.52891,
2009-07-13, 02:07:04,VALID,998.762,VALID,0,VALID,88.0229,VALID,0,VALID,23.5061,VALID,82,VALID,1.56016,
2009-07-13, 02:08:04,VALID,998.735,VALID,0,VALID,87.9009,VALID,0,VALID,23.4671,VALID,82,VALID,1.38008,
2009-07-13, 02:09:04,VALID,998.781,VALID,0,VALID,87.9237,VALID,0,VALID,23.4475,VALID,78,VALID,1.14141,
2009-07-13, 02:10:04,VALID,998.807,VALID,0,VALID,87.9848,VALID,0,VALID,23.428,VALID,79,VALID,1.07227,
2009-07-13, 02:11:04,VALID,998.818,VALID,0,VALID,87.9466,VALID,0,VALID,23.4085,VALID,74,VALID,0.783203,
2009-07-13, 02:12:04,VALID,998.837,VALID,0,VALID,87.9466,VALID,0,VALID,23.3695,VALID,44,VALID,0.618359,
2009-07-13, 02:13:04,VALID,998.844,VALID,0,VALID,88.908,VALID,0,VALID,23.3305,VALID,351,VALID,1.08828,
2009-07-13, 02:14:04,VALID,998.845,VALID,0,VALID,89.4191,VALID,0,VALID,23.2524,VALID,318,VALID,0.981641,
2009-07-13, 02:15:04,VALID,998.816,VALID,0,VALID,90.0677,VALID,0,VALID,23.1939,VALID,314,VALID,0.997656,
2009-07-13, 02:16:04,VALID,998.796,VALID,0,VALID,90.4491,VALID,0,VALID,23.1354,VALID,291,VALID,1.14492,
2009-07-13, 02:17:04,VALID,998.782,VALID,0,VALID,90.678,VALID,0,VALID,23.1159,VALID,270,VALID,0.347656,
2009-07-13, 02:18:04,VALID,998.75,VALID,0,VALID,90.7696,VALID,0,VALID,23.0769,VALID,290,VALID,0.651563,
2009-07-13, 02:19:04,VALID,998.746,VALID,0,VALID,90.8459,VALID,0,VALID,23.0964,VALID,291,VALID,0.369922,
2009-07-13, 02:20:04,VALID,998.715,VALID,0,VALID,90.7696,VALID,0,VALID,23.0964,VALID,291,VALID,0.3,
2009-07-13, 02:21:04,VALID,998.713,VALID,0,VALID,90.8764,VALID,0,VALID,23.0964,VALID,330,VALID,0.658594,
2009-07-13, 02:22:04,VALID,998.69,VALID,0,VALID,90.8306,VALID,0,VALID,23.0964,VALID,330,VALID,0.474219,
2009-07-13, 02:23:04,VALID,998.711,VALID,0,VALID,90.8917,VALID,0,VALID,23.0769,VALID,331,VALID,0.551172,
2009-07-13, 02:24:04,VALID,998.705,VALID,0,VALID,91.0061,VALID,0,VALID,23.0786,VALID,332,VALID,0.603125,
2009-07-13, 02:25:04,VALID,998.707,VALID,0,VALID,90.9374,VALID,0,VALID,23.0591,VALID,332,VALID,0.451172,
2009-07-13, 02:26:04,VALID,998.716,VALID,0,VALID,91.09,VALID,0,VALID,22.9988,VALID,332,VALID,0.363672,
2009-07-13, 02:27:04,VALID,998.701,VALID,0,VALID,91.2274,VALID,0,VALID,23.0006,VALID,332,VALID,0.370313,
2009-07-13, 02:28:04,VALID,998.682,VALID,0,VALID,91.2808,VALID,0,VALID,22.9598,VALID,332,VALID,0.467578,
2009-07-13, 02:29:04,VALID,998.673,VALID,0,VALID,91.2808,VALID,0,VALID,22.9385,VALID,332,VALID,0.362109,
2009-07-13, 02:30:04,VALID,998.697,VALID,0,VALID,91.3037,VALID,0,VALID,22.9403,VALID,332,VALID,0.332422,
2009-07-13, 02:31:04,VALID,998.676,VALID,0,VALID,91.3037,VALID,0,VALID,22.9208,VALID,332,VALID,0.310937,
2009-07-13, 02:32:04,VALID,998.67,VALID,0,VALID,91.296,VALID,0,VALID,22.9013,VALID,332,VALID,0.411328,
2009-07-13, 02:33:04,VALID,998.678,VALID,0,VALID,91.3876,VALID,0,VALID,22.8623,VALID,332,VALID,0.619531,
2009-07-13, 02:34:04,VALID,998.686,VALID,0,VALID,91.296,VALID,0,VALID,22.8623,VALID,332,VALID,0.569531,
2009-07-13, 02:35:04,VALID,998.697,VALID,0,VALID,91.2426,VALID,0,VALID,22.8232,VALID,64,VALID,0.873828,
2009-07-13, 02:36:04,VALID,998.703,VALID,0,VALID,91.3418,VALID,0,VALID,22.8037,VALID,64,VALID,1.28906,
2009-07-13, 02:37:04,VALID,998.735,VALID,0,VALID,91.3571,VALID,0,VALID,22.7842,VALID,66,VALID,1.3918,
2009-07-13, 02:38:04,VALID,998.728,VALID,0,VALID,91.4105,VALID,0,VALID,22.7842,VALID,68,VALID,1.16406,
2009-07-13, 02:39:04,VALID,998.761,VALID,0,VALID,91.7004,VALID,0,VALID,22.7452,VALID,68,VALID,1.15,
2009-07-13, 02:40:04,VALID,998.741,VALID,0,VALID,91.8606,VALID,0,VALID,22.7452,VALID,75,VALID,1.18125,
2009-07-13, 02:41:04,VALID,998.734,VALID,0,VALID,92.0971,VALID,0,VALID,22.7452,VALID,81,VALID,1.27188,
2009-07-13, 02:42:04,VALID,998.708,VALID,0,VALID,92.2345,VALID,0,VALID,22.7647,VALID,83,VALID,1.40937,
2009-07-13, 02:43:04,VALID,998.645,VALID,0,VALID,92.326,VALID,0,VALID,22.7647,VALID,85,VALID,1.18945,
2009-07-13, 02:44:04,VALID,998.634,VALID,0,VALID,92.3413,VALID,0,VALID,22.7452,VALID,87,VALID,1.07187,
2009-07-13, 02:45:04,VALID,998.658,VALID,0,VALID,92.3947,VALID,0,VALID,22.7452,VALID,86,VALID,1.04141,
2009-07-13, 02:46:04,VALID,998.62,VALID,0,VALID,92.4405,VALID,0,VALID,22.7452,VALID,81,VALID,1.19648,
2009-07-13, 02:47:04,VALID,998.646,VALID,0,VALID,92.4481,VALID,0,VALID,22.7257,VALID,99,VALID,0.91875,
2009-07-13, 02:48:04,VALID,998.673,VALID,0,VALID,92.5549,VALID,0,VALID,22.7257,VALID,111,VALID,0.776172,
2009-07-13, 02:49:04,VALID,998.689,VALID,0,VALID,92.6083,VALID,0,VALID,22.7257,VALID,101,VALID,0.716016,
2009-07-13, 02:50:04,VALID,998.713,VALID,0,VALID,92.5473,VALID,0,VALID,22.7274,VALID,94,VALID,0.858203,
2009-07-13, 02:51:04,VALID,998.711,VALID,0,VALID,92.4328,VALID,0,VALID,22.6867,VALID,105,VALID,0.795703,
2009-07-13, 02:52:04,VALID,998.719,VALID,0,VALID,92.3871,VALID,0,VALID,22.6867,VALID,107,VALID,0.678516,
2009-07-13, 02:53:04,VALID,998.734,VALID,0,VALID,92.3184,VALID,0,VALID,22.6672,VALID,107,VALID,0.348828,
2009-07-13, 02:54:04,VALID,998.724,VALID,0,VALID,92.2726,VALID,0,VALID,22.6477,VALID,106,VALID,0.178906,
2009-07-13, 02:55:04,VALID,998.72,VALID,0,VALID,92.326,VALID,0,VALID,22.6282,VALID,105,VALID,0.676953,
2009-07-13, 02:56:04,VALID,998.711,VALID,0,VALID,92.6236,VALID,0,VALID,22.6282,VALID,87,VALID,1.15,
2009-07-13, 02:57:04,VALID,998.703,VALID,0,VALID,92.4557,VALID,0,VALID,22.6494,VALID,90,VALID,0.852734,
2009-07-13, 02:58:04,VALID,998.719,VALID,0,VALID,92.3947,VALID,0,VALID,22.6282,VALID,97,VALID,0.425391,
2009-07-13, 02:59:04,VALID,998.715,VALID,0,VALID,92.3718,VALID,0,VALID,22.6282,VALID,76,VALID,0.435156,
2009-07-13, 03:00:04,VALID,998.734,VALID,0,VALID,92.326,VALID,0,VALID,22.6087,VALID,76,VALID,0.454297,
2009-07-13, 03:01:04,VALID,998.748,VALID,0,VALID,92.2803,VALID,0,VALID,22.6087,VALID,76,VALID,0.282031,
2009-07-13, 03:02:04,VALID,998.772,VALID,0,VALID,92.3184,VALID,0,VALID,22.5892,VALID,76,VALID,0.310156,
2009-07-13, 03:03:04,VALID,998.799,VALID,0,VALID,92.4481,VALID,0,VALID,22.5892,VALID,68,VALID,0.485156,
2009-07-13, 03:04:04,VALID,998.768,VALID,0,VALID,92.3718,VALID,0,VALID,22.5892,VALID,68,VALID,0.342187,
2009-07-13, 03:05:04,VALID,998.777,VALID,0,VALID,92.2345,VALID,0,VALID,22.5306,VALID,68,VALID,0.289844,
2009-07-13, 03:06:04,VALID,998.805,VALID,0,VALID,92.5397,VALID,0,VALID,22.5306,VALID,68,VALID,0.419531,
2009-07-13, 03:07:04,VALID,998.757,VALID,0,VALID,92.7685,VALID,0,VALID,22.5501,VALID,68,VALID,0.510547,
2009-07-13, 03:08:04,VALID,998.785,VALID,0,VALID,92.9364,VALID,0,VALID,22.5892,VALID,112,VALID,0.682813,
2009-07-13, 03:09:04,VALID,998.768,VALID,0,VALID,92.8677,VALID,0,VALID,22.6087,VALID,115,VALID,0.758203,
2009-07-13, 03:10:04,VALID,998.743,VALID,0,VALID,93.0127,VALID,0,VALID,22.6282,VALID,115,VALID,0.827344,
2009-07-13, 03:11:04,VALID,998.779,VALID,0,VALID,92.7457,VALID,0,VALID,22.6477,VALID,114,VALID,0.796094,
2009-07-13, 03:12:04,VALID,998.733,VALID,0,VALID,92.7609,VALID,0,VALID,22.6689,VALID,114,VALID,0.702734,
2009-07-13, 03:13:04,VALID,998.759,VALID,0,VALID,92.6923,VALID,0,VALID,22.6264,VALID,110,VALID,0.833984,
2009-07-13, 03:14:04,VALID,998.752,VALID,0,VALID,92.5931,VALID,0,VALID,22.6087,VALID,104,VALID,0.964453,
2009-07-13, 03:15:04,VALID,998.739,VALID,0,VALID,92.5778,VALID,0,VALID,22.6282,VALID,103,VALID,0.982031,
2009-07-13, 03:16:04,VALID,998.749,VALID,0,VALID,92.471,VALID,0,VALID,22.6087,VALID,102,VALID,0.898047,
2009-07-13, 03:17:04,VALID,998.763,VALID,0,VALID,92.3871,VALID,0,VALID,22.5892,VALID,102,VALID,0.7375,
2009-07-13, 03:18:04,VALID,998.772,VALID,0,VALID,92.4252,VALID,0,VALID,22.5892,VALID,102,VALID,0.453125,
2009-07-13, 03:19:04,VALID,998.76,VALID,0,VALID,92.3489,VALID,0,VALID,22.5696,VALID,102,VALID,0.141797,
2009-07-13, 03:20:04,VALID,998.782,VALID,0,VALID,92.3871,VALID,0,VALID,22.5696,VALID,102,VALID,0.155859,
2009-07-13, 03:21:04,VALID,998.759,VALID,0,VALID,92.5091,VALID,0,VALID,22.5696,VALID,102,VALID,0.242188,
2009-07-13, 03:22:04,VALID,998.762,VALID,0,VALID,92.5931,VALID,0,VALID,22.6087,VALID,102,VALID,0.325781,
2009-07-13, 03:23:04,VALID,998.766,VALID,0,VALID,92.5168,VALID,0,VALID,22.6282,VALID,102,VALID,0.384375,
2009-07-13, 03:24:04,VALID,998.752,VALID,0,VALID,92.4557,VALID,0,VALID,22.6282,VALID,102,VALID,0.0347656,
2009-07-13, 03:25:04,VALID,998.741,VALID,0,VALID,92.3184,VALID,0,VALID,22.6494,VALID,102,VALID,0.000390625,
2009-07-13, 03:26:04,VALID,998.726,VALID,0,VALID,92.3337,VALID,0,VALID,22.6689,VALID,78,VALID,0.428516,
2009-07-13, 03:27:04,VALID,998.719,VALID,0,VALID,92.3031,VALID,0,VALID,22.6477,VALID,72,VALID,0.45625,
2009-07-13, 03:28:04,VALID,998.758,VALID,0,VALID,92.1353,VALID,0,VALID,22.6672,VALID,32,VALID,0.548828,
2009-07-13, 03:29:04,VALID,998.723,VALID,0,VALID,91.8148,VALID,0,VALID,22.6477,VALID,15,VALID,0.580078,
2009-07-13, 03:30:04,VALID,998.743,VALID,0,VALID,91.5326,VALID,0,VALID,22.6087,VALID,15,VALID,0.703516,
2009-07-13, 03:31:04,VALID,998.731,VALID,0,VALID,91.0443,VALID,0,VALID,22.5501,VALID,16,VALID,0.611719,
2009-07-13, 03:32:04,VALID,998.705,VALID,0,VALID,91.3952,VALID,0,VALID,22.4721,VALID,16,VALID,0.60625,
2009-07-13, 03:33:04,VALID,998.701,VALID,0,VALID,91.792,VALID,0,VALID,22.4331,VALID,16,VALID,0.698438,
2009-07-13, 03:34:04,VALID,998.73,VALID,0,VALID,92.0132,VALID,0,VALID,22.4153,VALID,16,VALID,0.655078,
2009-07-13, 03:35:04,VALID,998.717,VALID,0,VALID,92.204,VALID,0,VALID,22.3746,VALID,16,VALID,0.682031,
2009-07-13, 03:36:04,VALID,998.75,VALID,0,VALID,92.2497,VALID,0,VALID,22.3356,VALID,16,VALID,0.492188,
2009-07-13, 03:37:04,VALID,998.727,VALID,0,VALID,92.3413,VALID,0,VALID,22.3356,VALID,16,VALID,0.561328,
2009-07-13, 03:38:04,VALID,998.729,VALID,0,VALID,92.3794,VALID,0,VALID,22.3161,VALID,16,VALID,0.435937,
2009-07-13, 03:39:04,VALID,998.764,VALID,0,VALID,92.4405,VALID,0,VALID,22.3161,VALID,16,VALID,0.4,
2009-07-13, 03:40:04,VALID,998.755,VALID,0,VALID,92.4176,VALID,0,VALID,22.3356,VALID,16,VALID,0.391797,
2009-07-13, 03:41:04,VALID,998.737,VALID,0,VALID,92.4252,VALID,0,VALID,22.3178,VALID,16,VALID,0.436328,
2009-07-13, 03:42:04,VALID,998.738,VALID,0,VALID,92.4252,VALID,0,VALID,22.3373,VALID,16,VALID,0.384375,
2009-07-13, 03:43:04,VALID,998.74,VALID,0,VALID,92.4481,VALID,0,VALID,22.3178,VALID,16,VALID,0.312109,
2009-07-13, 03:44:04,VALID,998.722,VALID,0,VALID,92.4939,VALID,0,VALID,22.2966,VALID,16,VALID,0.398438,
2009-07-13, 03:45:04,VALID,998.729,VALID,0,VALID,92.6388,VALID,0,VALID,22.3356,VALID,101,VALID,0.632422,
2009-07-13, 03:46:04,VALID,998.706,VALID,0,VALID,92.7457,VALID,0,VALID,22.3763,VALID,101,VALID,0.611719,